| time (UTC) | temp C | wind direction | speed KPH | gust KPH | rain 1hr cm | rain 24hr cm | rain mn cm | humidity % | barometer mb |
| 20260507155510 | 15 | 203 | 32.2 | 51.5 | 0.00 | 0.00 | 0.00 | 33 | 1008.6 |
| 20260507155000 | 15 | 203 | 33.8 | 54.7 | 0.00 | 0.00 | 0.00 | 32 | 1008.6 |
| 20260507154456 | 16 | 203 | 32.2 | 54.7 | 0.00 | 0.00 | 0.00 | 33 | 1008.3 |
| 20260507153941 | 15 | 203 | 37.0 | 61.2 | 0.00 | 0.00 | 0.00 | 33 | 1008.8 |
| 20260507153431 | 15 | 248 | 40.2 | 64.4 | 0.00 | 0.00 | 0.00 | 34 | 1008.5 |
| 20260507152410 | 15 | 180 | 43.5 | 57.9 | 0.00 | 0.00 | 0.00 | 34 | 1008.5 |
| 20260507151900 | 15 | 203 | 41.8 | 62.8 | 0.00 | 0.00 | 0.00 | 35 | 1008.6 |
| 20260507150330 | 14 | 203 | 43.5 | 62.8 | 0.00 | 0.00 | 0.00 | 36 | 1009.1 |
| 20260507145819 | 15 | 203 | 43.5 | 62.8 | 0.00 | 0.00 | 0.00 | 36 | 1008.8 |
| 20260507145309 | 14 | 248 | 54.7 | 64.4 | 0.00 | 0.00 | 0.00 | 36 | 1008.6 |
| 20260507144759 | 14 | 203 | 40.2 | 66.0 | 0.00 | 0.00 | 0.00 | 37 | 1008.5 |
| 20260507144249 | 14 | 203 | 54.7 | 69.2 | 0.00 | 0.00 | 0.00 | 37 | 1008.6 |
| 20260507143739 | 14 | 203 | 35.4 | 69.2 | 0.00 | 0.00 | 0.00 | 37 | 1009.0 |
| 20260507142719 | 13 | 225 | 41.8 | 61.2 | 0.00 | 0.00 | 0.00 | 38 | 1008.5 |
| 20260507141658 | 13 | 225 | 45.1 | 61.2 | 0.00 | 0.00 | 0.00 | 41 | 1008.9 |
| 20260507141149 | 13 | 180 | 41.8 | 61.2 | 0.00 | 0.00 | 0.00 | 41 | 1008.8 |
| 20260507140648 | 12 | 203 | 37.0 | 48.3 | 0.00 | 0.00 | 0.00 | 44 | 1008.4 |
| 20260507140128 | 12 | 225 | 33.8 | 51.5 | 0.00 | 0.00 | 0.00 | 45 | 1008.8 |
| 20260507135622 | 12 | 203 | 33.8 | 54.7 | 0.00 | 0.00 | 0.00 | 46 | 1008.5 |
| 20260507135108 | 12 | 225 | 35.4 | 57.9 | 0.00 | 0.00 | 0.00 | 47 | 1008.8 |
| 20260507134558 | 12 | 203 | 29.0 | 57.9 | 0.00 | 0.00 | 0.00 | 48 | 1009.0 |
| 20260507134047 | 11 | 203 | 40.2 | 54.7 | 0.00 | 0.00 | 0.00 | 48 | 1009.0 |
| 20260507133538 | 11 | 203 | 32.2 | 51.5 | 0.00 | 0.00 | 0.00 | 48 | 1009.1 |
| 20260507133028 | 11 | 203 | 33.8 | 54.7 | 0.00 | 0.00 | 0.00 | 48 | 1009.2 |
| 20260507132517 | 11 | 225 | 38.6 | 54.7 | 0.00 | 0.00 | 0.00 | 48 | 1009.0 |
| 20260507132007 | 11 | 248 | 41.8 | 54.7 | 0.00 | 0.00 | 0.00 | 48 | 1008.6 |
| 20260507130947 | 12 | 225 | 32.2 | 43.5 | 0.00 | 0.00 | 0.00 | 48 | 1008.5 |
| 20260507125927 | 11 | 225 | 33.8 | 46.7 | 0.00 | 0.00 | 0.00 | 49 | 1008.6 |
| 20260507125417 | 11 | 225 | 30.6 | 43.5 | 0.00 | 0.00 | 0.00 | 49 | 1008.9 |
| 20260507124906 | 11 | 225 | 33.8 | 46.7 | 0.00 | 0.00 | 0.00 | 49 | 1009.6 |
| 20260507124357 | 11 | 225 | 29.0 | 46.7 | 0.00 | 0.00 | 0.00 | 49 | 1009.8 |
| 20260507123848 | 11 | 225 | 30.6 | 40.2 | 0.00 | 0.00 | 0.00 | 49 | 1009.7 |
| 20260507123336 | 11 | 203 | 25.7 | 37.0 | 0.00 | 0.00 | 0.00 | 49 | 1009.4 |
| 20260507122827 | 11 | 203 | 25.7 | 43.5 | 0.00 | 0.00 | 0.00 | 50 | 1009.3 |
| 20260507122316 | 11 | 203 | 25.7 | 48.3 | 0.00 | 0.00 | 0.00 | 50 | 1009.1 |
| 20260507121256 | 11 | 180 | 29.0 | 46.7 | 0.00 | 0.00 | 0.00 | 49 | 1008.2 |
| 20260507120745 | 11 | 203 | 29.0 | 43.5 | 0.00 | 0.00 | 0.00 | 49 | 1008.3 |
| 20260507120235 | 11 | 203 | 27.4 | 38.6 | 0.00 | 0.00 | 0.00 | 49 | 1008.6 |
| 20260507115725 | 11 | 203 | 29.0 | 38.6 | 0.00 | 0.00 | 0.00 | 49 | 1008.4 |
| 20260507114706 | 11 | 203 | 29.0 | 46.7 | 0.00 | 0.00 | 0.00 | 48 | 1008.1 |
| 20260507114156 | 11 | 203 | 32.2 | 48.3 | 0.00 | 0.00 | 0.00 | 48 | 1007.6 |
| 20260507112625 | 11 | 203 | 24.1 | 43.5 | 0.00 | 0.00 | 0.00 | 51 | 1007.3 |
| 20260507112115 | 11 | 225 | 24.1 | 43.5 | 0.00 | 0.00 | 0.00 | 51 | 1007.2 |
| 20260507111605 | 11 | 180 | 27.4 | 43.5 | 0.00 | 0.00 | 0.00 | 52 | 1006.6 |
| 20260507111057 | 11 | 203 | 30.6 | 40.2 | 0.00 | 0.00 | 0.00 | 52 | 1007.0 |
| 20260507110550 | 11 | 203 | 25.7 | 38.6 | 0.00 | 0.00 | 0.00 | 54 | 1007.1 |
| 20260507105525 | 12 | 180 | 24.1 | 38.6 | 0.00 | 0.00 | 0.00 | 53 | 1006.9 |
| 20260507105014 | 12 | 203 | 24.1 | 43.5 | 0.00 | 0.00 | 0.00 | 53 | 1006.6 |
| 20260507104510 | 12 | 203 | 30.6 | 43.5 | 0.00 | 0.00 | 0.00 | 52 | 1006.4 |
| 20260507103954 | 12 | 203 | 27.4 | 40.2 | 0.00 | 0.00 | 0.00 | 52 | 1007.0 |
| 20260507103444 | 12 | 203 | 27.4 | 49.9 | 0.00 | 0.00 | 0.00 | 51 | 1006.9 |
| 20260507102934 | 12 | 225 | 27.4 | 49.9 | 0.00 | 0.00 | 0.00 | 50 | 1006.6 |
| 20260507102423 | 12 | 203 | 32.2 | 48.3 | 0.00 | 0.00 | 0.00 | 49 | 1006.4 |
| 20260507101914 | 12 | 180 | 32.2 | 38.6 | 0.00 | 0.00 | 0.00 | 49 | 1006.9 |
| 20260507101403 | 13 | 203 | 27.4 | 43.5 | 0.00 | 0.00 | 0.00 | 50 | 1007.4 |
| 20260507100853 | 13 | 203 | 30.6 | 43.5 | 0.00 | 0.00 | 0.00 | 49 | 1007.1 |
| 20260507100344 | 13 | 225 | 19.3 | 43.5 | 0.00 | 0.00 | 0.00 | 50 | 1007.4 |
| 20260507095833 | 13 | 225 | 30.6 | 43.5 | 0.00 | 0.00 | 0.00 | 49 | 1007.0 |
| 20260507095323 | 13 | 203 | 30.6 | 43.5 | 0.00 | 0.00 | 0.00 | 49 | 1007.3 |
| 20260507094303 | 13 | 203 | 27.4 | 37.0 | 0.00 | 0.00 | 0.00 | 49 | 1007.3 |
| 20260507093753 | 13 | 203 | 17.7 | 40.2 | 0.00 | 0.00 | 0.00 | 49 | 1007.0 |
| 20260507093242 | 13 | 203 | 22.5 | 40.2 | 0.00 | 0.00 | 0.00 | 48 | 1006.7 |
| 20260507092732 | 14 | 225 | 29.0 | 38.6 | 0.00 | 0.00 | 0.00 | 47 | 1006.4 |
| 20260507092222 | 14 | 203 | 25.7 | 38.6 | 0.00 | 0.00 | 0.00 | 47 | 1006.7 |
| 20260507091712 | 14 | 225 | 27.4 | 37.0 | 0.00 | 0.00 | 0.00 | 47 | 1006.4 |
| 20260507090651 | 14 | 225 | 27.4 | 43.5 | 0.00 | 0.00 | 0.00 | 47 | 1006.0 |
| 20260507090141 | 14 | 203 | 30.6 | 40.2 | 0.00 | 0.00 | 0.00 | 46 | 1006.0 |
| 20260507085634 | 14 | 203 | 29.0 | 37.0 | 0.00 | 0.00 | 0.00 | 48 | 1006.1 |
| 20260507085121 | 14 | 248 | 24.1 | 33.8 | 0.00 | 0.00 | 0.00 | 48 | 1006.0 |
| 20260507084612 | 14 | 225 | 25.7 | 33.8 | 0.00 | 0.00 | 0.00 | 47 | 1005.7 |
| 20260507084101 | 14 | 203 | 24.1 | 32.2 | 0.00 | 0.00 | 0.00 | 47 | 1005.5 |
| 20260507083551 | 14 | 225 | 24.1 | 32.2 | 0.00 | 0.00 | 0.00 | 47 | 1005.5 |
| 20260507082531 | 15 | 203 | 24.1 | 37.0 | 0.00 | 0.00 | 0.00 | 47 | 1005.4 |
| 20260507082021 | 15 | 203 | 22.5 | 33.8 | 0.00 | 0.00 | 0.00 | 47 | 1005.5 |
| 20260507081511 | 15 | 203 | 24.1 | 38.6 | 0.00 | 0.00 | 0.00 | 48 | 1005.6 |
| 20260507081001 | 15 | 203 | 24.1 | 43.5 | 0.00 | 0.00 | 0.00 | 48 | 1006.0 |
| 20260507080450 | 15 | 203 | 25.7 | 43.5 | 0.00 | 0.00 | 0.00 | 50 | 1005.8 |
| 20260507075940 | 14 | 203 | 27.4 | 43.5 | 0.00 | 0.00 | 0.00 | 52 | 1006.1 |
| 20260507075431 | 14 | 203 | 27.4 | 33.8 | 0.00 | 0.00 | 0.00 | 52 | 1005.9 |
| 20260507074920 | 14 | 203 | 27.4 | 33.8 | 0.00 | 0.00 | 0.00 | 54 | 1006.2 |
| 20260507074410 | 13 | 203 | 20.9 | 38.6 | 0.00 | 0.00 | 0.00 | 55 | 1006.2 |
| 20260507073900 | 14 | 203 | 22.5 | 38.6 | 0.00 | 0.00 | 0.00 | 55 | 1006.4 |
| 20260507072329 | 14 | 203 | 20.9 | 33.8 | 0.00 | 0.00 | 0.00 | 61 | 1006.2 |
| 20260507071819 | 14 | 203 | 20.9 | 32.2 | 0.00 | 0.00 | 0.00 | 63 | 1006.2 |
| 20260507071309 | 14 | 203 | 19.3 | 35.4 | 0.00 | 0.00 | 0.00 | 63 | 1006.4 |
| 20260507070759 | 14 | 203 | 24.1 | 35.4 | 0.00 | 0.00 | 0.00 | 63 | 1006.2 |
| 20260507070249 | 14 | 203 | 22.5 | 35.4 | 0.00 | 0.00 | 0.00 | 64 | 1006.2 |
| 20260507064719 | 15 | 203 | 20.9 | 40.2 | 0.00 | 0.00 | 0.00 | 64 | 1006.2 |
| 20260507063658 | 15 | 158 | 27.4 | 40.2 | 0.00 | 0.00 | 0.00 | 63 | 1006.3 |
| 20260507063148 | 15 | 203 | 24.1 | 51.5 | 0.00 | 0.00 | 0.00 | 63 | 1006.6 |
| 20260507062638 | 15 | 203 | 33.8 | 51.5 | 0.00 | 0.00 | 0.00 | 62 | 1006.5 |
| 20260507062128 | 15 | 203 | 30.6 | 54.7 | 0.00 | 0.00 | 0.00 | 61 | 1006.6 |
| 20260507061618 | 16 | 203 | 40.2 | 54.7 | 0.00 | 0.00 | 0.00 | 60 | 1006.4 |
| 20260507060558 | 16 | 225 | 32.2 | 43.5 | 0.00 | 0.00 | 0.00 | 62 | 1006.5 |
| 20260507060056 | 16 | 203 | 29.0 | 40.2 | 0.00 | 0.00 | 0.00 | 63 | 1006.5 |
| 20260507055538 | 16 | 203 | 27.4 | 37.0 | 0.00 | 0.00 | 0.00 | 65 | 1006.5 |
| 20260507055027 | 16 | 225 | 27.4 | 32.2 | 0.00 | 0.00 | 0.00 | 66 | 1006.4 |
| 20260507054518 | 16 | 203 | 22.5 | 32.2 | 0.00 | 0.00 | 0.00 | 67 | 1006.2 |
| 20260507053457 | 16 | 203 | 22.5 | 35.4 | 0.00 | 0.00 | 0.00 | 68 | 1006.2 |
| 20260507052947 | 16 | 203 | 22.5 | 37.0 | 0.00 | 0.00 | 0.00 | 69 | 1006.1 |
| 20260507052437 | 16 | 203 | 20.9 | 37.0 | 0.00 | 0.00 | 0.00 | 69 | 1005.8 |
| 20260507051927 | 16 | 180 | 24.1 | 35.4 | 0.00 | 0.00 | 0.00 | 68 | 1006.2 |
| 20260507051418 | 16 | 180 | 24.1 | 35.4 | 0.00 | 0.00 | 0.00 | 69 | 1005.9 |
| 20260507050357 | 16 | 203 | 20.9 | 0.0 | 0.00 | 0.00 | 0.00 | 72 | 1005.6 |
| 20260507050147 | 16 | 203 | 24.1 | 0.0 | 0.00 | 0.00 | 0.00 | 72 | 1005.7 |
| 20260507045804 | 16 | 225 | 25.7 | 37.0 | 0.00 | 0.00 | 0.00 | 71 | 1005.6 |
| 20260507045253 | 16 | 180 | 24.1 | 35.4 | 0.00 | 0.00 | 0.00 | 69 | 1005.6 |
| 20260507044743 | 16 | 180 | 24.1 | 35.4 | 0.00 | 0.00 | 0.00 | 70 | 1005.6 |
| 20260507044233 | 17 | 203 | 24.1 | 43.5 | 0.00 | 0.00 | 0.00 | 72 | 1005.4 |
| 20260507043723 | 17 | 203 | 27.4 | 43.5 | 0.00 | 0.00 | 0.00 | 73 | 1005.3 |
| 20260507043214 | 17 | 225 | 27.4 | 35.4 | 0.00 | 0.00 | 0.00 | 74 | 1005.3 |
| 20260507042703 | 16 | 203 | 17.7 | 35.4 | 0.00 | 0.00 | 0.00 | 75 | 1005.3 |
| 20260507041642 | 17 | 203 | 17.7 | 25.7 | 0.00 | 0.00 | 0.00 | 76 | 1005.4 |
| 20260507035602 | 17 | 203 | 6.4 | 12.9 | 0.00 | 0.00 | 0.00 | 75 | 1005.6 |
| 20260507035052 | 17 | 203 | 9.7 | 12.9 | 0.00 | 0.00 | 0.00 | 75 | 1005.5 |
| 20260507034032 | 17 | 203 | 9.7 | 24.1 | 0.00 | 0.00 | 0.00 | 76 | 1005.3 |
| 20260507033522 | 17 | 203 | 14.5 | 27.4 | 0.00 | 0.00 | 0.00 | 76 | 1004.7 |
| 20260507033012 | 17 | 225 | 19.3 | 27.4 | 0.00 | 0.00 | 0.00 | 76 | 1004.7 |
| 20260507032501 | 17 | 203 | 19.3 | 27.4 | 0.00 | 0.00 | 0.00 | 76 | 1004.0 |
| 20260507031952 | 17 | 225 | 17.7 | 27.4 | 0.00 | 0.00 | 0.00 | 76 | 1004.4 |
| 20260507030931 | 17 | 203 | 12.9 | 25.7 | 0.00 | 0.00 | 0.00 | 76 | 1003.7 |
| 20260507030417 | 17 | 0.0 | 0.0 | 0.00 | 0.00 | 0.00 | 75 |